User: anonymous   Login
Location: Unspecified
(0.0000°N, 0.0000°E)
Time: 09:27:39
(UTC+00:00)
Language:

Tiros N - Orbit

View from above orbital plane
View from above orbital plane
View from above satellite
View from above satellite

Ground track
Ground track

The orbit data is extracted from the following two-line orbital elements,

1 11060U 78096A   18147.91242182 +.00000012 +00000-0 +27431-4 0  9992
2 11060 098.8439 202.7095 0011732 078.0562 282.1927 14.18196954261602
Epoch (UTC): 27 May 2018 21:53:53
Eccentricity: 0.0011732
inclination: 98.8439°
perigee height: 823 km
apogee height: 840 km
right ascension of ascending node: 202.7095°
argument of perigee: 78.0562°
revolutions per day: 14.18196954
mean anomaly at epoch: 282.1927°
orbit number at epoch: 26160

The dashed part of the orbit path shows where the satellite is in the earth's shadow,  

DLR